This is the latest recevied weather packets stored in our database for station/object EA2CW-13. If no packets are shown the sender has not sent any weather packets the latest 10 day(s).
| Time | Temp. | Humidity | Pressure | Rain* | Wind** | Luminosity | Snow |
|---|---|---|---|---|---|---|---|
| 1777361618 | 18.33° C | 82% | 1051.6 hPa | - | - | 12 W/m² | - |
| 1777360682 | 17.78° C | 82% | 1051.5 hPa | - | - | 4 W/m² | - |
| 1777359746 | 17.78° C | 83% | 1051.6 hPa | - | - | 10 W/m² | - |
| 1777358810 | 17.78° C | 83% | 1051.7 hPa | - | - | 3 W/m² | - |
| 1777357874 | 17.78° C | 83% | 1051.7 hPa | - | - | 4 W/m² | - |
| 1777356938 | 17.78° C | 82% | 1051.5 hPa | - | - | 3 W/m² | - |
| 1777356002 | 18.33° C | 82% | 1051.5 hPa | - | - | 2 W/m² | - |
| 1777355067 | 17.78° C | 83% | 1051.5 hPa | - | - | 2 W/m² | - |
| 1777354130 | 17.78° C | 83% | 1051.5 hPa | - | - | 1 W/m² | - |
| 1777353195 | 17.78° C | 83% | 1051.5 hPa | - | - | 0 W/m² | - |
| 1777352259 | 17.78° C | 83% | 1051.4 hPa | - | - | 0 W/m² | - |
| 1777351323 | 17.78° C | 83% | 1051.4 hPa | - | - | 0 W/m² | - |
| 1777350387 | 17.78° C | 82% | 1051.6 hPa | - | - | 0 W/m² | - |
| 1777349451 | 17.78° C | 82% | 1051.7 hPa | - | - | 0 W/m² | - |
| 1777348515 | 17.78° C | 82% | 1051.9 hPa | - | - | 0 W/m² | - |
| 1777347579 | 17.78° C | 82% | 1052 hPa | - | - | 0 W/m² | - |
| 1777346643 | 17.78° C | 82% | 1052 hPa | - | - | 0 W/m² | - |
| 1777345707 | 17.78° C | 82% | 1052.2 hPa | - | - | 0 W/m² | - |
| 1777344771 | 17.78° C | 82% | 1052.3 hPa | - | - | 0 W/m² | - |
| 1777343835 | 17.78° C | 81% | 1052.3 hPa | - | - | 0 W/m² | - |
| 1777342899 | 17.78° C | 81% | 1052.4 hPa | - | - | 0 W/m² | - |
| 1777341963 | 17.78° C | 81% | 1052.5 hPa | - | - | 0 W/m² | - |
| 1777341027 | 17.78° C | 81% | 1052.6 hPa | - | - | 0 W/m² | - |
| 1777340091 | 17.78° C | 80% | 1052.9 hPa | - | - | 0 W/m² | - |
| 1777339155 | 17.78° C | 80% | 1053.1 hPa | - | - | 0 W/m² | - |
* Rain since midnight (hover to see other rain measurements)
** Current wind speed in m/s (hover to see current wind gust speed)